contact:dominique.lefevre@mio.osupytheas.fr, maurice.libes@osupytheas.fr, didier.mallarino@osupytheas.fr
Project:EMSO http://www.emso-fr.org/EMSO-France
Depth: 2436.0 m
Title:EMSO Ligure Ouest : Data MII capteur AQUADOPP
Date,Latitude,Longitude,X_East,Y_North,Z_Up,Amplitude_X,Amplitude_Y,Amplitude_Z,Batterie,SoundSpeed,Heading,Pitch,Roll,Pressure,TIS,Speed,Direction
, degrees North, degrees East, m.s-1, m.s-1,m.s-1, 1, 1, 1, Volt, m.s-1, degree, degree, degree, dbar, degree_C, m.s-1, degree
2022-08-06T00:04:02,42.805,6.029,-0.041,0.015,-0.016,102.0,102.0,101.0,13.4,1505.2,322.3,-0.7,1.8,2471.055,13.28,0.043,290.1
2022-08-06T00:07:03,42.805,6.029,-0.017,0.007,-0.007,102.0,101.0,101.0,13.4,1505.2,325.1,-0.8,1.8,2471.025,13.28,0.018,292.4
2022-08-06T00:10:02,42.805,6.029,-0.027,-0.003,-0.053,101.0,102.0,100.0,13.4,1505.2,330.3,-0.7,1.9,2471.026,13.28,0.027,263.7
2022-08-06T00:13:02,42.805,6.029,-0.026,0.02,-0.047,102.0,102.0,101.0,13.3,1505.2,332.3,-0.8,1.9,2471.05,13.29,0.032,307.6
2022-08-06T00:16:03,42.805,6.029,-0.022,-0.003,-0.027,103.0,102.0,101.0,13.3,1505.2,326.4,-0.7,1.8,2471.02,13.29,0.022,262.2
2022-08-06T00:19:02,42.805,6.029,-0.046,0.003,-0.009,102.0,102.0,102.0,13.3,1505.2,328.8,-0.7,1.8,2471.052,13.29,0.046,273.7
2022-08-06T00:22:02,42.805,6.029,-0.023,0.014,-0.013,101.0,101.0,102.0,13.3,1505.2,324.1,-0.7,1.9,2471.009,13.29,0.026,301.3
2022-08-06T00:25:02,42.805,6.029,-0.029,-0.004,-0.024,103.0,103.0,99.0,13.4,1505.2,330.4,-0.8,1.8,2471.002,13.29,0.029,262.2
2022-08-06T00:28:02,42.805,6.029,-0.041,0.019,-0.034,102.0,101.0,102.0,13.4,1505.2,330.2,-0.8,1.8,2471.027,13.29,0.045,294.9
2022-08-06T00:31:02,42.805,6.029,-0.042,0.006,-0.022,102.0,102.0,101.0,13.4,1505.2,326.7,-0.7,1.8,2471.016,13.29,0.042,278.1
2022-08-06T00:34:02,42.805,6.029,-0.029,0.017,-0.013,102.0,102.0,101.0,13.4,1505.2,320.3,-0.8,1.8,2471.003,13.29,0.033,300.4
2022-08-06T00:37:03,42.805,6.029,-0.059,-0.002,-0.076,101.0,103.0,101.0,13.3,1505.2,325.3,-0.7,1.8,2470.963,13.29,0.059,268.1
2022-08-06T00:40:02,42.805,6.029,-0.053,0.03,-0.019,101.0,102.0,101.0,13.4,1505.2,332.1,-0.8,1.8,2470.985,13.29,0.06,299.5
2022-08-06T00:43:02,42.805,6.029,-0.064,0.018,-0.041,101.0,102.0,102.0,13.4,1505.2,328.7,-0.7,1.8,2470.992,13.29,0.066,285.7
2022-08-06T00:46:02,42.805,6.029,-0.042,0.011,-0.033,100.0,104.0,101.0,13.4,1505.2,323.5,-0.7,1.8,2470.993,13.29,0.043,284.7
2022-08-06T00:49:02,42.805,6.029,-0.019,-0.008,-0.042,103.0,102.0,100.0,13.4,1505.2,324.7,-0.7,1.8,2471.033,13.29,0.02,247.2
2022-08-06T00:52:02,42.805,6.029,-0.035,0.008,-0.019,102.0,101.0,101.0,13.4,1505.2,324.4,-0.7,1.8,2470.992,13.29,0.035,282.9
2022-08-06T00:55:02,42.805,6.029,-0.028,-0.005,-0.029,103.0,101.0,101.0,13.4,1505.2,322.1,-0.8,1.8,2471.01,13.29,0.028,259.9
2022-08-06T00:58:02,42.805,6.029,-0.024,-0.014,-0.046,101.0,102.0,100.0,13.4,1505.2,320.8,-0.8,1.8,2471.003,13.29,0.027,239.7
2022-08-06T01:04:02,42.805,6.029,0.032,0.02,-0.017,104.0,103.0,103.0,13.3,1505.2,327.5,-0.8,1.8,2471.059,13.28,0.037,58.0
2022-08-06T01:07:03,42.805,6.029,-0.031,0.012,-0.03,102.0,101.0,101.0,13.4,1505.2,319.9,-0.8,1.8,2471.045,13.28,0.033,291.2
2022-08-06T01:10:02,42.805,6.029,-0.041,0.026,-0.011,101.0,102.0,101.0,13.3,1505.2,326.9,-0.7,1.8,2471.03,13.28,0.048,302.4
2022-08-06T01:13:03,42.805,6.029,-0.014,0.012,0.01,102.0,101.0,101.0,13.4,1505.2,320.6,-0.7,1.8,2471.025,13.28,0.018,310.6
2022-08-06T01:16:03,42.805,6.029,-0.028,0.019,-0.024,102.0,103.0,100.0,13.4,1505.2,323.3,-0.8,1.8,2471.033,13.28,0.033,304.2
2022-08-06T01:19:03,42.805,6.029,-0.015,-0.016,-0.014,101.0,103.0,100.0,13.3,1505.2,328.5,-0.8,1.8,2471.051,13.29,0.021,223.1
2022-08-06T01:22:02,42.805,6.029,-0.011,0.006,-0.015,101.0,102.0,101.0,13.4,1505.2,331.2,-0.8,1.8,2471.064,13.29,0.012,298.6
2022-08-06T01:25:03,42.805,6.029,-0.053,0.015,-0.026,103.0,101.0,101.0,13.4,1505.2,321.4,-0.7,1.8,2470.981,13.29,0.055,285.8
2022-08-06T01:28:03,42.805,6.029,-0.038,0.002,0.005,102.0,101.0,102.0,13.4,1505.2,320.4,-0.7,1.8,2470.99,13.29,0.038,273.0
2022-08-06T01:31:03,42.805,6.029,-0.027,0.004,-0.036,102.0,102.0,101.0,13.4,1505.2,327.6,-0.7,1.8,2470.991,13.29,0.027,278.4
2022-08-06T01:34:03,42.805,6.029,-0.029,0.001,-0.04,103.0,101.0,101.0,13.4,1505.2,322.1,-0.8,1.8,2470.975,13.29,0.029,272.0
2022-08-06T01:37:02,42.805,6.029,-0.026,0.002,-0.021,102.0,103.0,101.0,13.3,1505.2,320.2,-0.8,1.8,2471.02,13.29,0.026,274.4
2022-08-06T01:40:03,42.805,6.029,-0.023,0.003,-0.027,102.0,101.0,102.0,13.4,1505.2,333.6,-0.8,1.8,2470.981,13.29,0.023,277.4
2022-08-06T01:43:03,42.805,6.029,-0.032,0.002,-0.033,102.0,102.0,101.0,13.3,1505.2,327.9,-0.8,1.8,2471.007,13.29,0.032,273.6
2022-08-06T01:46:03,42.805,6.029,-0.006,-0.002,-0.022,104.0,100.0,100.0,13.3,1505.2,332.9,-0.7,1.8,2470.999,13.29,0.006,251.6
2022-08-06T01:49:03,42.805,6.029,-0.015,0.025,0.002,102.0,102.0,101.0,13.4,1505.2,335.5,-0.7,1.8,2471.003,13.29,0.029,329.0
2022-08-06T01:52:02,42.805,6.029,-0.047,0.016,-0.039,102.0,104.0,99.0,13.3,1505.2,325.1,-0.8,1.8,2471.036,13.29,0.049,288.8
2022-08-06T01:55:03,42.805,6.029,-0.021,0.008,-0.015,101.0,104.0,100.0,13.4,1505.2,319.7,-0.8,1.8,2471.041,13.29,0.022,290.9
2022-08-06T01:58:03,42.805,6.029,-0.035,0.002,-0.047,102.0,101.0,101.0,13.3,1505.2,327.4,-0.8,1.8,2470.979,13.29,0.035,273.3
2022-08-06T02:04:02,42.805,6.029,-0.023,-0.003,-0.054,103.0,102.0,100.0,13.4,1505.2,328.2,-0.8,1.8,2471.02,13.28,0.023,262.6
2022-08-06T02:07:02,42.805,6.029,-0.035,0.0,-0.023,103.0,102.0,101.0,13.3,1505.2,324.3,-0.8,1.8,2471.053,13.28,0.035,270.0
2022-08-06T02:10:03,42.805,6.029,-0.044,0.012,-0.031,100.0,102.0,102.0,13.3,1505.2,327.9,-0.7,1.8,2471.042,13.28,0.045,285.3
2022-08-06T02:13:03,42.805,6.029,-0.036,-0.011,-0.059,102.0,104.0,99.0,13.4,1505.2,332.1,-0.7,1.8,2471.034,13.28,0.037,253.0
2022-08-06T02:16:03,42.805,6.029,-0.037,0.009,-0.038,102.0,103.0,99.0,13.4,1505.2,326.3,-0.8,1.8,2470.994,13.28,0.038,283.7
2022-08-06T02:19:03,42.805,6.029,-0.044,0.021,-0.031,101.0,102.0,102.0,13.4,1505.2,322.0,-0.8,1.8,2470.999,13.29,0.048,295.5
2022-08-06T02:22:02,42.805,6.029,-0.032,0.006,-0.045,101.0,102.0,101.0,13.4,1505.2,328.2,-0.8,1.8,2471.014,13.29,0.032,280.6
2022-08-06T02:25:03,42.805,6.029,0.012,-0.009,-0.04,103.0,102.0,101.0,13.4,1505.2,330.5,-0.7,1.8,2471.008,13.29,0.015,126.9
2022-08-06T02:28:03,42.805,6.029,-0.033,0.001,-0.031,101.0,103.0,100.0,13.3,1505.2,330.3,-0.7,1.9,2471.008,13.29,0.033,271.7
2022-08-06T02:31:03,42.805,6.029,-0.031,-0.027,-0.042,101.0,103.0,100.0,13.4,1505.2,322.9,-0.7,1.8,2470.984,13.29,0.041,228.9
2022-08-06T02:34:03,42.805,6.029,-0.035,-0.002,-0.053,102.0,102.0,101.0,13.4,1505.2,332.9,-0.8,1.8,2471.002,13.29,0.035,266.7
2022-08-06T02:37:02,42.805,6.029,-0.02,0.007,-0.018,101.0,102.0,102.0,13.4,1505.2,323.3,-0.7,1.8,2470.968,13.29,0.021,289.3
2022-08-06T02:40:03,42.805,6.029,-0.041,0.0,-0.023,101.0,103.0,99.0,13.3,1505.2,326.1,-0.7,1.9,2470.996,13.29,0.041,270.0
2022-08-06T02:43:03,42.805,6.029,-0.035,0.008,-0.02,102.0,102.0,100.0,13.4,1505.2,328.2,-0.8,1.8,2471.017,13.28,0.035,282.9
2022-08-06T02:46:03,42.805,6.029,-0.046,0.008,-0.038,104.0,103.0,99.0,13.4,1505.2,327.6,-0.8,1.8,2470.979,13.29,0.046,279.9
2022-08-06T02:49:03,42.805,6.029,-0.032,0.022,-0.009,103.0,102.0,101.0,13.3,1505.2,321.9,-0.8,1.8,2471.001,13.29,0.038,304.5
2022-08-06T02:52:02,42.805,6.029,-0.026,0.023,0.006,104.0,102.0,100.0,13.4,1505.2,322.8,-0.8,1.8,2470.972,13.29,0.034,311.5
2022-08-06T02:55:03,42.805,6.029,-0.026,0.012,0.01,102.0,102.0,102.0,13.3,1505.2,328.2,-0.8,1.8,2470.955,13.29,0.028,294.8
2022-08-06T02:58:03,42.805,6.029,-0.044,0.007,-0.043,102.0,103.0,101.0,13.3,1505.2,318.3,-0.7,1.8,2470.997,13.29,0.044,279.0
2022-08-06T03:04:02,42.805,6.029,-0.049,0.009,-0.012,103.0,102.0,100.0,13.4,1505.2,322.1,-0.8,1.8,2471.025,13.28,0.049,280.4
2022-08-06T03:07:02,42.805,6.029,-0.031,-0.003,-0.022,102.0,103.0,101.0,13.3,1505.2,318.9,-0.8,1.8,2471.02,13.28,0.031,264.5
2022-08-06T03:10:03,42.805,6.029,-0.029,0.004,-0.037,104.0,102.0,100.0,13.4,1505.2,333.6,-0.8,1.8,2470.996,13.28,0.029,277.8
2022-08-06T03:13:03,42.805,6.029,-0.022,-0.006,-0.037,103.0,103.0,100.0,13.4,1505.2,325.6,-0.8,1.8,2470.964,13.28,0.022,254.7
2022-08-06T03:16:03,42.805,6.029,-0.02,-0.006,-0.017,104.0,100.0,102.0,13.4,1505.2,320.2,-0.7,1.8,2470.955,13.28,0.02,253.3
2022-08-06T03:19:03,42.805,6.029,-0.03,0.003,-0.016,102.0,103.0,101.0,13.4,1505.2,329.7,-0.8,1.8,2470.991,13.28,0.03,275.7
2022-08-06T03:22:02,42.805,6.029,-0.037,0.016,-0.006,101.0,102.0,100.0,13.3,1505.2,334.2,-0.8,1.8,2470.992,13.29,0.04,293.4
2022-08-06T03:25:03,42.805,6.029,-0.044,-0.004,-0.032,103.0,102.0,101.0,13.4,1505.2,325.3,-0.8,1.9,2470.944,13.29,0.044,264.8
2022-08-06T03:28:03,42.805,6.029,-0.023,-0.003,-0.027,101.0,102.0,101.0,13.4,1505.2,324.6,-0.8,1.9,2470.973,13.29,0.023,262.6
2022-08-06T03:31:03,42.805,6.029,-0.03,-0.009,-0.041,102.0,102.0,101.0,13.4,1505.2,323.1,-0.8,1.8,2470.928,13.29,0.031,253.3
2022-08-06T03:34:03,42.805,6.029,-0.043,-0.009,-0.014,103.0,103.0,100.0,13.4,1505.2,319.4,-0.8,1.8,2470.964,13.29,0.043,258.2
2022-08-06T03:37:02,42.805,6.029,-0.028,-0.011,-0.059,102.0,102.0,101.0,13.4,1505.2,323.6,-0.8,1.8,2470.935,13.29,0.03,248.6
2022-08-06T03:40:03,42.805,6.029,-0.031,0.006,-0.062,101.0,103.0,100.0,13.3,1505.2,329.9,-0.8,1.8,2470.952,13.29,0.031,281.0
2022-08-06T03:43:03,42.805,6.029,-0.051,0.012,-0.05,101.0,103.0,100.0,13.4,1505.2,323.1,-0.8,1.8,2470.964,13.29,0.052,283.2
2022-08-06T03:46:03,42.805,6.029,-0.01,0.016,-0.034,103.0,102.0,100.0,13.4,1505.2,322.9,-0.8,1.8,2470.94,13.29,0.018,328.0
2022-08-06T03:49:03,42.805,6.029,-0.04,0.005,-0.026,103.0,103.0,100.0,13.4,1505.2,332.4,-0.8,1.8,2470.955,13.29,0.04,277.1
2022-08-06T03:52:02,42.805,6.029,-0.047,0.005,-0.025,101.0,102.0,101.0,13.4,1505.2,319.7,-0.7,1.8,2470.967,13.29,0.047,276.1
2022-08-06T03:55:03,42.805,6.029,-0.001,-0.016,-0.054,104.0,102.0,100.0,13.3,1505.2,328.8,-0.8,1.8,2470.962,13.29,0.016,183.6
2022-08-06T03:58:03,42.805,6.029,-0.025,-0.003,-0.019,102.0,101.0,102.0,13.4,1505.2,327.0,-0.7,1.8,2470.969,13.29,0.025,263.2
2022-08-06T04:04:02,42.805,6.029,-0.038,0.001,-0.048,102.0,102.0,101.0,13.4,1505.2,322.9,-0.8,1.8,2470.971,13.28,0.038,271.5
2022-08-06T04:07:02,42.805,6.029,-0.024,0.001,-0.015,101.0,103.0,101.0,13.4,1505.2,320.5,-0.8,1.8,2470.999,13.28,0.024,272.4
2022-08-06T04:10:03,42.805,6.029,-0.017,0.009,-0.024,101.0,104.0,101.0,13.4,1505.2,328.7,-0.8,1.8,2470.973,13.28,0.019,297.9
2022-08-06T04:13:03,42.805,6.029,-0.044,0.007,0.01,102.0,103.0,101.0,13.4,1505.2,321.1,-0.8,1.8,2470.974,13.28,0.044,279.0
2022-08-06T04:16:03,42.805,6.029,-0.041,-0.001,-0.047,101.0,102.0,101.0,13.4,1505.2,329.9,-0.8,1.8,2470.952,13.28,0.041,268.6
2022-08-06T04:19:03,42.805,6.029,-0.018,-0.003,-0.016,103.0,102.0,100.0,13.4,1505.2,332.1,-0.8,1.8,2470.933,13.28,0.018,260.5
2022-08-06T04:22:02,42.805,6.029,-0.044,0.005,-0.018,100.0,103.0,101.0,13.4,1505.2,319.5,-0.7,1.9,2470.942,13.28,0.044,276.5
2022-08-06T04:25:03,42.805,6.029,-0.031,0.018,-0.031,103.0,101.0,100.0,13.3,1505.2,323.6,-0.8,1.9,2470.959,13.28,0.035,300.1
2022-08-06T04:28:03,42.805,6.029,-0.035,0.011,-0.031,102.0,102.0,100.0,13.3,1505.2,329.5,-0.8,1.8,2470.962,13.29,0.036,287.4
2022-08-06T04:31:03,42.805,6.029,-0.018,0.0,-0.023,100.0,102.0,101.0,13.4,1505.2,323.2,-0.7,1.8,2470.917,13.29,0.018,270.0
2022-08-06T04:34:03,42.805,6.029,-0.034,0.003,-0.039,102.0,103.0,101.0,13.4,1505.2,328.6,-0.8,1.8,2470.944,13.29,0.034,275.0
2022-08-06T04:37:03,42.805,6.029,-0.029,-0.006,-0.012,102.0,101.0,101.0,13.4,1505.2,323.2,-0.8,1.8,2470.945,13.29,0.029,258.3
2022-08-06T04:40:03,42.805,6.029,-0.055,0.022,-0.01,102.0,103.0,100.0,13.4,1505.2,322.0,-0.8,1.8,2470.937,13.29,0.059,291.8
2022-08-06T04:43:03,42.805,6.029,-0.037,0.011,-0.034,102.0,103.0,100.0,13.4,1505.2,328.7,-0.7,1.8,2470.91,13.29,0.038,286.6
2022-08-06T04:46:03,42.805,6.029,-0.043,0.011,-0.014,103.0,102.0,100.0,13.4,1505.2,328.2,-0.8,1.8,2470.949,13.29,0.044,284.3
2022-08-06T04:49:03,42.805,6.029,-0.052,-0.004,-0.054,103.0,100.0,100.0,13.3,1505.2,318.2,-0.8,1.8,2470.94,13.29,0.052,265.6
2022-08-06T04:52:03,42.805,6.029,-0.031,0.014,-0.057,102.0,101.0,100.0,13.3,1505.2,324.3,-0.7,1.8,2470.904,13.29,0.034,294.3
2022-08-06T04:55:03,42.805,6.029,-0.048,-0.002,-0.051,102.0,100.0,101.0,13.3,1505.2,324.8,-0.8,1.9,2470.918,13.29,0.048,267.6
2022-08-06T04:58:03,42.805,6.029,-0.032,0.008,-0.011,102.0,102.0,99.0,13.4,1505.2,330.7,-0.8,1.8,2470.932,13.29,0.032,284.0
2022-08-06T05:04:02,42.805,6.029,-0.01,0.007,-0.016,102.0,103.0,102.0,13.4,1505.2,322.9,-0.8,1.8,2470.961,13.28,0.012,305.0
2022-08-06T05:07:03,42.805,6.029,-0.029,0.008,-0.003,101.0,103.0,101.0,13.4,1505.2,323.4,-0.7,1.8,2470.976,13.28,0.03,285.4
2022-08-06T05:10:03,42.805,6.029,-0.013,-0.006,-0.028,103.0,102.0,100.0,13.4,1505.2,323.7,-0.8,1.8,2470.953,13.28,0.014,245.2
2022-08-06T05:13:03,42.805,6.029,-0.029,0.01,0.013,103.0,101.0,101.0,13.4,1505.2,326.4,-0.8,1.8,2470.938,13.28,0.03,289.0
2022-08-06T05:16:03,42.805,6.029,-0.009,-0.005,-0.047,101.0,102.0,101.0,13.4,1505.2,328.1,-0.7,1.8,2470.945,13.28,0.01,240.9
2022-08-06T05:19:03,42.805,6.029,-0.014,0.019,-0.003,103.0,102.0,101.0,13.4,1505.2,330.7,-0.8,1.8,2470.957,13.29,0.023,323.6
2022-08-06T05:22:03,42.805,6.029,-0.031,-0.005,-0.044,101.0,101.0,102.0,13.4,1505.2,320.3,-0.8,1.8,2470.939,13.29,0.031,260.8
2022-08-06T05:25:03,42.805,6.029,-0.007,-0.003,-0.026,102.0,102.0,101.0,13.4,1505.2,319.1,-0.7,1.8,2470.948,13.29,0.007,246.8
2022-08-06T05:28:03,42.805,6.029,-0.014,0.013,-0.015,102.0,101.0,100.0,13.3,1505.2,318.5,-0.7,1.8,2470.908,13.29,0.019,312.9
2022-08-06T05:31:03,42.805,6.029,-0.052,0.005,-0.07,102.0,101.0,102.0,13.4,1505.2,325.1,-0.8,1.8,2470.908,13.29,0.052,275.5
2022-08-06T05:34:03,42.805,6.029,-0.027,-0.001,-0.036,100.0,104.0,100.0,13.4,1505.2,329.1,-0.7,1.9,2470.932,13.29,0.027,267.9
2022-08-06T05:37:03,42.805,6.029,-0.02,0.016,-0.037,102.0,102.0,100.0,13.3,1505.2,326.1,-0.8,1.8,2470.921,13.29,0.025,308.7
2022-08-06T05:40:03,42.805,6.029,-0.006,0.005,-0.005,103.0,102.0,100.0,13.4,1505.2,330.9,-0.8,1.8,2470.885,13.29,0.007,309.8
2022-08-06T05:43:03,42.805,6.029,-0.03,0.005,-0.037,102.0,100.0,101.0,13.4,1505.2,327.1,-0.8,1.8,2470.888,13.29,0.03,279.5
2022-08-06T05:46:03,42.805,6.029,-0.024,-0.013,-0.046,103.0,100.0,100.0,13.4,1505.2,322.6,-0.7,1.8,2470.881,13.29,0.027,241.6
2022-08-06T05:49:03,42.805,6.029,-0.037,-0.009,-0.062,101.0,101.0,101.0,13.3,1505.2,327.2,-0.8,1.8,2470.91,13.29,0.038,256.3
2022-08-06T05:52:03,42.805,6.029,-0.023,-0.007,-0.022,102.0,101.0,101.0,13.3,1505.2,334.2,-0.8,1.8,2470.899,13.29,0.024,253.1
2022-08-06T05:55:03,42.805,6.029,-0.026,0.012,-0.03,102.0,101.0,101.0,13.3,1505.2,332.1,-0.8,1.9,2470.867,13.29,0.028,294.8
2022-08-06T05:58:03,42.805,6.029,-0.046,0.003,-0.023,102.0,102.0,100.0,13.3,1505.2,326.4,-0.8,1.8,2470.895,13.29,0.046,273.7
2022-08-06T06:04:02,42.805,6.029,-0.035,0.009,0.0,103.0,101.0,100.0,13.4,1505.2,326.6,-0.7,1.8,2470.967,13.28,0.036,284.4
2022-08-06T06:07:03,42.805,6.029,-0.068,0.016,-0.024,101.0,101.0,100.0,13.3,1505.2,323.9,-0.8,1.8,2470.906,13.28,0.069,283.2
2022-08-06T06:10:03,42.805,6.029,-0.03,-0.004,-0.049,102.0,100.0,101.0,13.4,1505.2,328.4,-0.8,1.8,2470.931,13.28,0.03,262.4
2022-08-06T06:13:03,42.805,6.029,-0.028,-0.005,-0.021,102.0,102.0,100.0,13.4,1505.2,327.5,-0.8,1.9,2470.935,13.28,0.028,259.9
2022-08-06T06:16:03,42.805,6.029,-0.047,-0.002,-0.033,102.0,104.0,101.0,13.4,1505.2,326.6,-0.8,1.8,2470.932,13.28,0.047,267.6
2022-08-06T06:19:03,42.805,6.029,-0.03,-0.018,-0.022,102.0,101.0,101.0,13.4,1505.2,326.0,-0.8,1.8,2470.881,13.28,0.034,239.0
2022-08-06T06:22:03,42.805,6.029,-0.018,-0.009,-0.031,102.0,102.0,100.0,13.3,1505.2,326.4,-0.8,1.8,2470.919,13.29,0.02,243.4
2022-08-06T06:25:03,42.805,6.029,-0.049,-0.005,-0.054,101.0,101.0,101.0,13.4,1505.2,318.8,-0.8,1.8,2470.914,13.29,0.049,264.2
2022-08-06T06:28:03,42.805,6.029,-0.04,-0.01,-0.036,102.0,102.0,101.0,13.4,1505.2,322.5,-0.7,1.8,2470.887,13.29,0.041,256.0
2022-08-06T06:31:03,42.805,6.029,-0.047,-0.026,-0.046,101.0,102.0,100.0,13.4,1505.2,329.9,-0.7,1.8,2470.868,13.29,0.053,241.1
2022-08-06T06:34:03,42.805,6.029,-0.039,0.003,-0.024,101.0,102.0,101.0,13.3,1505.2,323.0,-0.8,1.8,2470.883,13.29,0.039,274.4
2022-08-06T06:37:03,42.805,6.029,-0.033,0.015,-0.013,102.0,102.0,100.0,13.4,1505.2,323.4,-0.7,1.8,2470.873,13.29,0.036,294.4
2022-08-06T06:40:03,42.805,6.029,-0.008,0.006,-0.035,101.0,102.0,101.0,13.4,1505.2,326.3,-0.8,1.8,2470.918,13.29,0.01,306.9
2022-08-06T06:43:03,42.805,6.029,-0.023,0.001,-0.039,102.0,103.0,100.0,13.3,1505.2,323.6,-0.7,1.8,2470.888,13.29,0.023,272.5
2022-08-06T06:46:03,42.805,6.029,-0.021,-0.002,-0.022,102.0,103.0,100.0,13.4,1505.2,322.0,-0.8,1.8,2470.893,13.29,0.021,264.6
2022-08-06T06:49:03,42.805,6.029,-0.007,-0.017,-0.021,102.0,102.0,101.0,13.3,1505.2,318.7,-0.7,1.8,2470.882,13.29,0.018,202.4
2022-08-06T06:52:03,42.805,6.029,-0.072,-0.009,-0.054,102.0,103.0,100.0,13.4,1505.2,323.5,-0.7,1.8,2470.911,13.29,0.072,262.9
2022-08-06T06:55:03,42.805,6.029,-0.029,0.014,0.004,103.0,102.0,101.0,13.3,1505.2,328.0,-0.7,1.8,2470.882,13.29,0.032,295.8
2022-08-06T06:58:03,42.805,6.029,-0.019,0.0,-0.008,102.0,101.0,100.0,13.4,1505.2,327.7,-0.7,1.8,2470.879,13.29,0.019,270.0
2022-08-06T07:04:02,42.805,6.029,-0.027,-0.008,-0.062,102.0,102.0,102.0,13.4,1505.2,329.6,-0.7,1.8,2470.907,13.28,0.028,253.5
2022-08-06T07:07:03,42.805,6.029,-0.021,-0.02,-0.043,104.0,102.0,100.0,13.4,1505.2,319.8,-0.8,1.8,2470.887,13.28,0.028,226.4
2022-08-06T07:10:03,42.805,6.029,-0.049,0.015,-0.026,103.0,101.0,101.0,13.4,1505.2,325.8,-0.7,1.8,2470.904,13.28,0.051,287.0
2022-08-06T07:13:03,42.805,6.029,-0.039,0.005,-0.038,102.0,102.0,100.0,13.4,1505.2,319.0,-0.8,1.8,2470.916,13.28,0.039,277.3
2022-08-06T07:16:03,42.805,6.029,-0.01,-0.02,-0.01,101.0,102.0,100.0,13.4,1505.2,323.9,-0.8,1.8,2470.919,13.28,0.022,206.6
2022-08-06T07:19:03,42.805,6.029,-0.039,0.002,-0.035,102.0,101.0,101.0,13.4,1505.2,328.9,-0.8,1.8,2470.925,13.28,0.039,272.9
2022-08-06T07:22:03,42.805,6.029,-0.053,0.02,-0.039,102.0,102.0,101.0,13.4,1505.2,328.1,-0.7,1.8,2470.881,13.28,0.056,290.7
2022-08-06T07:25:03,42.805,6.029,-0.046,-0.007,-0.037,102.0,101.0,101.0,13.3,1505.2,334.4,-0.8,1.8,2470.873,13.29,0.046,261.3
2022-08-06T07:28:03,42.805,6.029,-0.025,-0.009,-0.038,102.0,101.0,101.0,13.3,1505.2,321.0,-0.8,1.8,2470.932,13.29,0.026,250.2
2022-08-06T07:31:03,42.805,6.029,-0.022,0.001,-0.017,102.0,101.0,101.0,13.3,1505.2,325.1,-0.7,1.8,2470.865,13.29,0.022,272.6
2022-08-06T07:34:03,42.805,6.029,-0.037,0.031,-0.027,102.0,103.0,101.0,13.3,1505.2,324.3,-0.8,1.8,2470.866,13.29,0.048,310.0
2022-08-06T07:37:03,42.805,6.029,-0.043,0.011,-0.041,102.0,100.0,100.0,13.3,1505.2,321.5,-0.7,1.8,2470.868,13.29,0.044,284.3
2022-08-06T07:40:03,42.805,6.029,-0.012,0.003,0.016,103.0,102.0,101.0,13.3,1505.2,322.9,-0.8,1.8,2470.885,13.29,0.012,284.0
2022-08-06T07:43:03,42.805,6.029,-0.02,0.023,0.002,102.0,102.0,101.0,13.4,1505.2,324.7,-0.7,1.8,2470.865,13.29,0.03,319.0
2022-08-06T07:46:03,42.805,6.029,-0.032,0.0,-0.036,101.0,102.0,101.0,13.4,1505.2,319.8,-0.8,1.8,2470.852,13.29,0.032,270.0
2022-08-06T07:49:03,42.805,6.029,-0.033,0.014,-0.055,102.0,102.0,101.0,13.4,1505.2,333.4,-0.7,1.8,2470.883,13.29,0.035,293.0
2022-08-06T07:52:03,42.805,6.029,-0.044,0.006,-0.024,102.0,101.0,100.0,13.3,1505.2,320.4,-0.8,1.8,2470.874,13.29,0.044,277.8
2022-08-06T07:55:03,42.805,6.029,-0.029,0.005,-0.027,102.0,100.0,101.0,13.4,1505.2,327.8,-0.8,1.8,2470.853,13.29,0.029,279.8
2022-08-06T07:58:03,42.805,6.029,-0.02,-0.008,-0.038,102.0,101.0,100.0,13.4,1505.2,319.2,-0.7,1.8,2470.849,13.29,0.021,248.2
2022-08-06T08:04:02,42.805,6.029,-0.043,0.011,-0.015,102.0,101.0,100.0,13.3,1505.2,323.1,-0.8,1.8,2470.889,13.28,0.044,284.3
2022-08-06T08:07:02,42.805,6.029,-0.021,0.013,-0.036,101.0,102.0,100.0,13.4,1505.2,333.4,-0.8,1.8,2470.902,13.28,0.024,301.8
2022-08-06T08:10:03,42.805,6.029,-0.045,-0.027,-0.049,102.0,101.0,100.0,13.3,1505.2,317.6,-0.8,1.8,2470.875,13.28,0.052,239.0
2022-08-06T08:13:03,42.805,6.029,-0.052,-0.008,-0.043,101.0,101.0,100.0,13.4,1505.2,326.4,-0.8,1.8,2470.882,13.28,0.052,261.3
2022-08-06T08:16:03,42.805,6.029,-0.034,0.012,-0.01,101.0,102.0,100.0,13.4,1505.2,321.3,-0.7,1.8,2470.896,13.28,0.036,289.4
2022-08-06T08:19:03,42.805,6.029,-0.04,-0.004,-0.055,101.0,101.0,101.0,13.3,1505.2,322.1,-0.8,1.8,2470.884,13.29,0.04,264.3
2022-08-06T08:22:03,42.805,6.029,-0.029,0.029,-0.046,102.0,102.0,102.0,13.4,1505.2,326.1,-0.7,1.8,2470.864,13.29,0.041,315.0
2022-08-06T08:25:03,42.805,6.029,-0.031,0.004,-0.022,102.0,102.0,100.0,13.3,1505.2,332.9,-0.7,1.8,2470.871,13.29,0.031,277.3
2022-08-06T08:28:03,42.805,6.029,-0.026,-0.01,-0.042,101.0,102.0,101.0,13.4,1505.2,318.7,-0.8,1.8,2470.874,13.29,0.027,249.0
2022-08-06T08:31:03,42.805,6.029,-0.047,0.012,-0.021,103.0,102.0,100.0,13.4,1505.2,323.9,-0.7,1.8,2470.86,13.29,0.048,284.3
2022-08-06T08:34:03,42.805,6.029,-0.019,0.005,-0.035,102.0,102.0,101.0,13.4,1505.2,327.8,-0.8,1.8,2470.848,13.29,0.019,284.7
2022-08-06T08:37:03,42.805,6.029,-0.027,0.007,-0.026,102.0,103.0,101.0,13.4,1505.2,330.1,-0.8,1.8,2470.853,13.29,0.027,284.5
2022-08-06T08:40:03,42.805,6.029,-0.023,-0.009,-0.01,102.0,102.0,101.0,13.3,1505.2,330.1,-0.7,1.8,2470.867,13.29,0.024,248.6
2022-08-06T08:43:03,42.805,6.029,-0.048,-0.009,-0.062,102.0,102.0,101.0,13.4,1505.2,329.6,-0.7,1.8,2470.836,13.29,0.048,259.4
2022-08-06T08:46:03,42.805,6.029,-0.038,0.014,-0.025,102.0,102.0,102.0,13.4,1505.2,333.4,-0.7,1.8,2470.851,13.29,0.04,290.2
2022-08-06T08:49:03,42.805,6.029,-0.019,-0.011,-0.007,102.0,102.0,101.0,13.4,1505.2,322.1,-0.8,1.8,2470.865,13.29,0.021,239.9
2022-08-06T08:52:03,42.805,6.029,-0.044,-0.002,-0.027,102.0,103.0,101.0,13.3,1505.2,321.0,-0.8,1.8,2470.872,13.29,0.044,267.4
2022-08-06T08:55:03,42.805,6.029,-0.061,0.002,-0.041,102.0,102.0,100.0,13.4,1505.2,322.9,-0.8,1.8,2470.872,13.29,0.061,271.9
2022-08-06T08:58:03,42.805,6.029,-0.01,0.007,-0.023,102.0,101.0,101.0,13.4,1505.2,332.3,-0.8,1.8,2470.846,13.29,0.012,305.0
2022-08-06T09:04:03,42.805,6.029,-0.034,0.009,-0.022,102.0,102.0,101.0,13.4,1505.2,323.9,-0.8,1.8,2470.906,13.28,0.035,284.8
2022-08-06T09:07:03,42.805,6.029,-0.019,-0.013,-0.009,102.0,102.0,101.0,13.4,1505.2,325.8,-0.8,1.8,2470.916,13.28,0.023,235.6
2022-08-06T09:10:03,42.805,6.029,-0.022,0.021,0.012,102.0,106.0,102.0,13.4,1505.2,325.2,-0.7,1.8,2470.911,13.28,0.03,313.7
2022-08-06T09:13:03,42.805,6.029,-0.03,0.001,-0.029,102.0,101.0,101.0,13.4,1505.2,320.7,-0.8,1.8,2470.914,13.29,0.03,271.9
2022-08-06T09:16:03,42.805,6.029,-0.051,-0.005,-0.032,102.0,104.0,101.0,13.4,1505.2,318.2,-0.7,1.8,2470.932,13.29,0.051,264.4
2022-08-06T09:19:03,42.805,6.029,-0.034,-0.002,-0.023,101.0,103.0,100.0,13.3,1505.2,332.6,-0.8,1.8,2470.868,13.29,0.034,266.6
2022-08-06T09:22:03,42.805,6.029,-0.023,0.006,-0.028,102.0,102.0,104.0,13.4,1505.2,327.4,-0.7,1.9,2470.894,13.29,0.023,284.6
2022-08-06T09:25:03,42.805,6.029,-0.041,0.0,-0.004,102.0,102.0,100.0,13.4,1505.2,333.9,-0.8,1.8,2470.862,13.29,0.041,270.0
2022-08-06T09:28:03,42.805,6.029,-0.044,0.001,-0.028,103.0,103.0,100.0,13.4,1505.2,319.1,-0.7,1.8,2470.919,13.29,0.044,271.3
2022-08-06T09:31:03,42.805,6.029,-0.03,-0.018,-0.028,102.0,103.0,101.0,13.3,1505.2,323.8,-0.8,1.8,2470.872,13.29,0.034,239.0
2022-08-06T09:34:03,42.805,6.029,-0.026,0.012,-0.008,102.0,102.0,101.0,13.4,1505.2,326.4,-0.8,1.8,2470.907,13.29,0.028,294.8
2022-08-06T09:37:03,42.805,6.029,-0.017,0.004,-0.012,101.0,102.0,102.0,13.4,1505.2,321.0,-0.7,1.8,2470.862,13.29,0.017,283.2
2022-08-06T09:40:03,42.805,6.029,-0.029,-0.016,-0.053,102.0,102.0,101.0,13.4,1505.2,323.5,-0.8,1.8,2470.89,13.29,0.033,241.1
2022-08-06T09:43:03,42.805,6.029,-0.01,-0.006,-0.024,104.0,102.0,100.0,13.4,1505.2,323.0,-0.7,1.8,2470.879,13.29,0.011,239.0
2022-08-06T09:46:03,42.805,6.029,-0.023,-0.014,-0.007,103.0,101.0,100.0,13.4,1505.2,324.2,-0.7,1.8,2470.891,13.29,0.026,238.7
2022-08-06T09:49:03,42.805,6.029,-0.015,-0.005,-0.019,102.0,101.0,102.0,13.3,1505.2,328.3,-0.7,1.8,2470.871,13.29,0.015,251.6
2022-08-06T09:52:03,42.805,6.029,-0.043,0.0,-0.064,101.0,102.0,101.0,13.4,1505.2,327.4,-0.7,1.8,2470.888,13.29,0.043,270.0